Volver al catálogo

STARLINK-4596

ActivoComunicacionesVLEO
NORAD 53624·PAYLOAD·🇺🇸 United States

Lanzado Aug 28, 2022 desde Cape Canaveral Space Force Station

Loading…

Próximos Pases (próximas 24 horas)

TLE

ActualizadoSource: CelesTrak SupGP

Época: Sep 15, 2026, 02:15 UTC

1 53624C 22104AN  26258.09423611 -.00011306  00000+0 -36355-3 0  2583
2 53624  53.1572  88.9953 0001371  80.8977 206.1946 15.31708968    15

Sigue STARLINK-4596 en tiempo real con AllMySat

Download on the App Store